Time,TemperatureF,DewpointF,PressureIn,WindDirection,WindDirectionDegrees,WindSpeedMPH,WindSpeedGustMPH,Humidity,HourlyPrecipIn,Conditions,Clouds,dailyrainin,SoftwareType,DateUTC
2013-04-13 00:00:00,72.8,53.6,29.62,North,0,0.0,0.0,51,0.00,,---,0.44,VWS V14.01,2013-04-13 04:00:00,
2013-04-13 00:30:00,70.9,54.4,29.63,North,0,0.0,0.0,56,0.00,,---,0.44,VWS V14.01,2013-04-13 04:30:00,
2013-04-13 01:00:00,68.6,52.8,29.66,North,0,0.0,0.0,57,0.00,,---,0.00,VWS V14.01,2013-04-13 05:00:00,
2013-04-13 01:30:00,67.4,47.6,29.67,North,0,0.0,0.0,49,0.00,,---,0.00,VWS V14.01,2013-04-13 05:30:00,
2013-04-13 02:00:00,66.3,43.2,29.68,North,0,0.0,0.0,43,0.00,,---,0.00,VWS V14.01,2013-04-13 06:00:00,
2013-04-13 02:30:00,65.6,40.7,29.70,North,0,0.0,0.0,40,0.00,,---,0.00,VWS V14.01,2013-04-13 06:30:00,
2013-04-13 03:00:00,64.5,40.3,29.72,North,0,0.0,0.0,41,0.00,,---,0.00,VWS V14.01,2013-04-13 07:00:00,
2013-04-13 03:30:00,63.2,41.0,29.72,North,0,0.0,0.0,44,0.00,,---,0.00,VWS V14.01,2013-04-13 07:30:00,
2013-04-13 04:00:00,62.1,41.1,29.73,North,0,0.0,0.0,46,0.00,,---,0.00,VWS V14.01,2013-04-13 08:00:00,
2013-04-13 04:30:00,61.3,41.5,29.74,North,0,0.0,0.0,48,0.00,,---,0.00,VWS V14.01,2013-04-13 08:30:00,
2013-04-13 05:00:00,60.4,42.2,29.74,North,0,0.0,0.0,51,0.00,,---,0.00,VWS V14.01,2013-04-13 09:00:00,
2013-04-13 05:30:00,59.2,42.1,29.75,North,0,0.0,0.0,53,0.00,,---,0.00,VWS V14.01,2013-04-13 09:30:00,
2013-04-13 06:00:00,58.4,39.8,29.76,East,90,0.0,1.0,50,0.00,,---,0.00,VWS V14.01,2013-04-13 10:00:00,
2013-04-13 06:30:00,58.0,39.0,29.78,East,90,0.0,1.0,49,0.00,,---,0.00,VWS V14.01,2013-04-13 10:30:00,
2013-04-13 07:00:00,57.2,38.2,29.78,East,90,0.0,0.0,49,0.00,,---,0.00,VWS V14.01,2013-04-13 11:00:00,
2013-04-13 07:30:00,56.5,37.1,29.79,East,90,0.0,0.0,48,0.00,,---,0.00,VWS V14.01,2013-04-13 11:30:00,
2013-04-13 08:00:00,55.4,37.1,29.81,East,90,0.0,0.0,50,0.00,,---,0.00,VWS V14.01,2013-04-13 12:00:00,
2013-04-13 08:30:00,54.4,37.2,29.83,East,90,0.0,0.0,52,0.00,,---,0.00,VWS V14.01,2013-04-13 12:30:00,
2013-04-13 09:00:00,53.1,38.3,29.85,East,90,0.0,0.0,57,0.00,,---,0.00,VWS V14.01,2013-04-13 13:00:00,
2013-04-13 09:30:00,55.1,38.3,29.86,East,90,0.0,0.0,53,0.00,,---,0.00,VWS V14.01,2013-04-13 13:30:00,
2013-04-13 10:00:00,57.8,37.7,29.87,East,90,0.0,0.0,47,0.00,,---,0.00,VWS V14.01,2013-04-13 14:00:00,
2013-04-13 10:30:00,60.1,37.0,29.88,East,90,0.0,0.0,42,0.00,,---,0.00,VWS V14.01,2013-04-13 14:30:00,
2013-04-13 11:00:00,62.1,36.2,29.88,East,90,0.0,0.0,38,0.00,,---,0.00,VWS V14.01,2013-04-13 15:00:00,
2013-04-13 11:30:00,63.9,36.5,29.88,East,90,0.0,0.0,36,0.00,,---,0.00,VWS V14.01,2013-04-13 15:30:00,
2013-04-13 12:00:00,64.5,34.0,29.89,East,90,0.0,0.0,32,0.00,,---,0.00,VWS V14.01,2013-04-13 16:00:00,
2013-04-13 12:30:00,65.2,33.8,29.89,East,90,0.0,0.0,31,0.00,,---,0.00,VWS V14.01,2013-04-13 16:30:00,
2013-04-13 13:00:00,67.8,33.5,29.89,East,90,0.0,0.0,28,0.00,,---,0.00,VWS V14.01,2013-04-13 17:00:00,
2013-04-13 13:30:00,68.4,34.0,29.88,East,90,0.0,0.0,28,0.00,,---,0.00,VWS V14.01,2013-04-13 17:30:00,
2013-04-13 14:00:00,71.6,35.9,29.88,East,90,0.0,0.0,27,0.00,,---,0.00,VWS V14.01,2013-04-13 18:00:00,
2013-04-13 14:30:00,73.7,36.7,29.87,East,90,0.0,0.0,26,0.00,,---,0.00,VWS V14.01,2013-04-13 18:30:00,
2013-04-13 15:00:00,73.9,35.9,29.87,East,90,0.0,0.0,25,0.00,,---,0.00,VWS V14.01,2013-04-13 19:00:00,
2013-04-13 15:30:00,74.0,37.9,29.86,East,90,0.0,0.0,27,0.00,,---,0.00,VWS V14.01,2013-04-13 19:30:00,
2013-04-13 16:00:00,74.7,35.5,29.86,East,90,0.0,0.0,24,0.00,,---,0.00,VWS V14.01,2013-04-13 20:00:00,
2013-04-13 16:30:00,75.3,35.0,29.85,East,90,0.0,0.0,23,0.00,,---,0.00,VWS V14.01,2013-04-13 20:30:00,
2013-04-13 17:00:00,76.1,35.7,29.84,East,90,0.0,0.0,23,0.00,,---,0.00,VWS V14.01,2013-04-13 21:00:00,
2013-04-13 17:30:00,74.9,34.6,29.83,East,90,0.0,0.0,23,0.00,,---,0.00,VWS V14.01,2013-04-13 21:30:00,
2013-04-13 18:00:00,76.7,36.2,29.82,East,90,0.0,0.0,23,0.00,,---,0.00,VWS V14.01,2013-04-13 22:00:00,
2013-04-13 18:30:00,76.7,36.2,29.82,East,90,0.0,0.0,23,0.00,,---,0.00,VWS V14.01,2013-04-13 22:30:00,
2013-04-13 19:00:00,76.7,36.2,29.82,East,90,0.0,0.0,23,0.00,,---,0.00,VWS V14.01,2013-04-13 23:00:00,
2013-04-13 19:30:00,77.0,35.3,29.82,East,90,0.0,0.0,22,0.00,,---,0.00,VWS V14.01,2013-04-13 23:30:00,
2013-04-13 20:00:00,76.5,36.0,29.82,East,90,0.0,0.0,23,0.00,,---,0.00,VWS V14.01,2013-04-14 00:00:00,
2013-04-13 20:30:00,75.8,37.5,29.82,East,90,0.0,0.0,25,0.00,,---,0.00,VWS V14.01,2013-04-14 00:30:00,
2013-04-13 21:00:00,73.7,34.7,29.83,East,90,0.0,0.0,24,0.00,,---,0.00,VWS V14.01,2013-04-14 01:00:00,
2013-04-13 21:30:00,72.3,37.4,29.84,East,90,0.0,0.0,28,0.00,,---,0.00,VWS V14.01,2013-04-14 01:30:00,
2013-04-13 22:00:00,69.4,39.8,29.85,East,90,0.0,0.0,34,0.00,,---,0.00,VWS V14.01,2013-04-14 02:00:00,
2013-04-13 22:30:00,66.4,41.4,29.86,East,90,0.0,0.0,40,0.00,,---,0.00,VWS V14.01,2013-04-14 02:30:00,
2013-04-13 23:00:00,63.5,42.4,29.87,East,90,0.0,0.0,46,0.00,,---,0.00,VWS V14.01,2013-04-14 03:00:00,
2013-04-13 23:30:00,61.3,43.5,29.89,East,90,0.0,0.0,52,0.00,,---,0.00,VWS V14.01,2013-04-14 03:30:00,